SCP
0 0 0 0 0 0 0 0 0 0 0 0 0 0 0 0 0 0 0 0 0 0 0 0 0 0 0 0 0 0 0 0 0 0 0 0 0 0
0 0 0 0 0 0 0 0 0 0 0 0 0 0 0 0 0 0 0 0 0 0 0 0 0 0 0 0 0 0 0 0 0 0 0 0 0 0
0 0 0 0 0 0 0 0 0 0 0 0 0 0 0 0 0 0 0 0 0 0 0 0 0 0 0 0 0 0 0 0 0 0 0 0 0 0
0 0 0 0 0 0 0 0 0 0 0 0 0 0 0 0 0 0 0 0 0 0 0 0 0 0 0 0 0 0 0 0 0 0 0 0 -0 -0
1 0 0 0 0 0 0 0 0 0 0 0 0 0 0 0 0 0 0 0 0 0 0 0 0 0 0 0 0 0 0 0 0 0 0 -0 -0 -0
1 1 0 0 0 0 0 0 0 0 0 0 0 0 0 0 0 0 0 0 0 0 0 0 0 0 0 0 0 0 0 0 0 0 0 -0 -0 -0
1 1 0 0 0 0 0 0 0 0 0 0 0 0 0 0 0 0 0 0 0 0 0 0 0 0 0 0 0 0 0 0 0 0 0 0 0 0
1 1 1 0 0 0 0 0 0 0 0 0 0 0 0 0 0 0 0 0 0 0 0 0 0 0 0 0 0 0 0 0 0 0 0 0 0 0
1 1 1 0 0 0 0 0 0 0 0 0 0 0 0 0 0 0 0 0 0 0 0 0 0 0 1 0 0 0 0 0 0 0 0 0 0 0
1 1 1 0 0 0 0 0 0 0 0 0 0 0 0 0 0 0 0 0 0 0 0 0 0 1 1 0 0 0 0 0 0 0 0 0 0 0
1 1 0 0 0 0 0 0 0 0 0 0 0 0 0 0 0 0 0 0 0 0 0 1 1 1 1 0 0 0 0 0 0 0 0 0 0 0
1 1 0 0 0 0 0 0 0 0 0 0 0 0 0 0 0 0 0 0 0 0 0 1 1 1 1 0 0 0 0 0 0 0 0 0 0 0
1 1 0 0 0 0 0 0 0 0 0 0 0 0 0 0 0 0 0 0 0 0 1 1 1 1 0 0 0 0 0 0 0 0 0 0 0 0
1 1 0 0 0 0 0 0 0 0 0 0 0 0 0 0 0 0 0 0 0 0 0 1 1 0 0 0 0 0 0 0 0 0 0 0 0 0
0 0 0 0 0 0 0 0 0 0 0 0 0 0 0 0 0 0 0 0 0 0 0 0 0 0 0 0 0 0 0 0 0 0 0 0 0 0
0 0 0 0 0 0 0 0 0 0 0 0 0 0 0 0 0 1 1 1 0 0 0 0 0 0 0 0 0 0 0 0 0 0 0 0 0 0
0 0 0 0 0 0 0 0 0 0 0 1 1 1 0 0 1 1 1 1 1 0 0 0 0 0 0 0 0 0 0 0 0 0 0 0 0 0
0 0 0 0 0 0 0 1 1 1 1 1 1 1 1 1 1 1 1 1 1 0 0 0 0 0 0 0 0 0 0 0 0 0 0 0 0 0
0 0 0 0 0 0 0 1 1 1 1 1 1 1 1 1 1 1 1 1 0 0 0 0 0 0 0 0 0 0 0 0 0 0 0 0 0 0
0 0 0 0 0 0 0 0 1 1 1 1 1 1 1 1 1 1 1 1 0 0 0 0 0 0 0 0 0 0 0 0 0 0 0 0 0 0
0 0 0 0 0 0 0 0 0 0 1 1 1 1 1 1 1 1 0 0 0 0 0 0 0 0 0 0 0 0 0 0 0 0 0 0 0 0
0 0 0 0 0 0 0 0 0 0 0 0 1 1 1 1 1 1 0 0 0 0 0 0 0 0 0 0 0 0 0 0 0 0 0 0 0 0
0 0 0 0 0 0 0 0 0 0 0 0 0 0 1 1 1 1 0 0 0 0 0 0 0 0 0 0 0 0 0 0 0 0 0 0 0 0
Wind_Speed
1 1 1 1 1 1 0 1 1 2 2 1 1 1 1 2 4 3 3 6 8 7 7 7 7 7 7 6 6 6 6 6 6 6 8 9 10 10
1 1 1 1 1 1 1 1 1 2 2 2 2 1 1 1 3 2 3 6 8 9 9 8 8 7 7 6 6 6 6 6 6 7 7 8 8 9
1 1 1 2 2 1 1 1 2 1 2 2 1 1 1 1 2 2 3 4 4 8 9 9 9 8 8 7 7 6 6 6 6 7 7 7 7 8
1 2 2 2 2 2 1 2 2 1 2 2 2 1 1 1 2 3 3 4 4 7 9 10 10 9 9 8 7 7 6 6 6 6 6 7 7 7
1 1 1 2 2 2 2 2 2 2 1 2 2 1 1 1 2 3 3 2 4 5 8 10 11 11 10 9 8 8 7 7 7 7 7 7 7 7
1 1 1 1 2 3 2 2 2 2 1 2 2 1 1 1 1 2 2 2 3 4 4 5 8 11 11 10 9 8 8 8 7 7 7 7 7 7
1 1 1 3 4 2 2 2 2 2 1 2 2 2 1 1 2 3 3 2 3 3 3 3 4 4 6 8 9 9 8 8 8 8 8 8 7 7
1 1 1 2 3 3 3 3 2 2 2 2 2 2 2 2 2 3 2 2 3 2 2 4 3 4 4 5 8 9 9 9 8 8 8 8 8 8
1 1 2 2 3 2 3 3 2 3 3 3 3 3 3 2 2 3 3 3 4 3 2 3 2 3 3 4 8 9 9 9 9 9 8 8 8 8
1 1 2 2 3 3 2 2 2 3 3 3 3 4 3 2 3 4 4 4 3 2 2 3 3 3 3 3 7 9 9 9 9 9 9 8 8 8
1 1 1 1 4 5 2 2 3 3 4 3 3 4 5 5 3 2 3 2 3 3 2 3 3 3 3 2 4 7 8 8 8 8 8 8 7 6
1 0 1 1 2 3 2 2 3 3 4 4 3 4 3 4 4 3 3 3 3 3 2 2 3 2 2 2 1 2 3 5 6 6 6 6 5 4
2 2 1 1 1 3 3 3 4 4 3 3 3 3 2 2 2 2 2 2 3 3 2 1 2 2 2 2 1 1 2 2 2 3 4 5 5 4
2 2 2 1 2 3 2 4 4 4 3 3 3 2 2 2 1 2 2 2 2 3 2 2 2 2 2 3 2 1 1 1 2 2 2 4 5 6
2 3 3 3 2 2 3 4 3 2 2 3 3 3 2 2 2 2 2 2 2 3 2 1 2 3 2 3 3 2 1 1 1 1 1 2 2 2
3 3 3 3 3 3 2 1 1 1 2 3 3 3 2 2 1 1 1 2 2 2 2 2 2 2 2 3 2 2 1 1 1 1 1 1 1 1
3 2 1 1 1 1 2 2 2 2 2 3 3 2 2 2 2 1 1 2 2 2 2 1 1 1 1 2 2 1 1 1 1 1 0 1 0 1
2 2 2 2 2 2 2 2 1 2 2 2 2 2 2 2 2 2 1 2 2 2 2 2 2 1 1 2 2 2 2 1 1 1 1 1 1 1
2 2 2 2 3 3 2 2 2 2 2 2 2 2 2 2 2 2 2 2 2 2 2 1 1 1 2 3 2 3 2 2 1 1 1 1 2 1
3 3 3 3 3 2 2 3 3 2 1 2 2 2 2 2 2 2 2 2 2 2 2 1 1 1 2 3 2 2 2 2 1 1 1 1 0 0
3 3 3 3 3 2 2 2 2 2 2 2 2 3 2 2 2 3 2 3 3 2 2 2 2 3 2 1 1 1 1 2 2 1 1 1 1 1
3 3 3 2 2 3 3 2 3 2 2 3 3 3 2 2 3 3 3 2 3 3 2 2 2 2 1 2 2 1 1 1 2 2 2 2 2 2
3 3 3 3 2 2 3 3 3 2 2 2 3 3 3 3 3 3 2 2 3 2 2 2 2 2 2 1 1 1 1 1 1 0 1 2 2 3
Wind_Direction
309 315 296 288 280 286 255 207 223 246 253 234 231 211 168 152 169 178 176 187 189 194 201 201 201 206 214 219 225 228 233 236 239 242 243 242 238 235
332 343 316 309 290 273 253 252 247 234 247 239 241 220 212 198 194 193 186 187 198 197 199 201 205 210 215 218 221 226 231 233 236 241 244 244 240 235
321 329 327 322 326 305 282 274 265 247 245 257 231 213 216 216 227 221 199 198 196 197 200 205 210 214 214 215 216 221 226 233 239 242 244 246 244 240
332 339 326 318 322 315 309 289 282 266 235 250 260 244 242 225 227 240 228 220 214 205 205 206 210 212 212 212 213 218 226 236 244 248 250 250 247 246
336 325 323 322 310 303 298 294 287 283 256 245 259 255 253 258 255 266 256 244 234 218 210 210 211 210 211 213 212 214 222 230 236 241 246 247 245 243
350 358 352 332 320 309 297 307 295 294 279 264 261 266 269 276 261 261 267 263 261 243 228 221 211 210 209 210 210 211 218 225 230 234 239 241 239 236
314 324 34 29 18 352 324 317 303 293 288 285 270 278 274 275 271 263 261 258 261 249 234 229 211 207 208 214 216 216 219 225 229 231 232 234 234 232
325 329 0 34 16 12 345 313 292 275 278 277 278 276 281 274 282 274 270 265 262 255 244 239 211 209 202 204 206 209 216 222 225 226 228 230 233 233
2 350 337 4 27 353 348 336 307 269 252 259 275 270 268 271 270 272 271 264 257 258 260 259 246 240 218 208 200 202 209 217 223 223 224 228 231 233
344 354 360 6 348 354 339 337 323 320 288 262 261 271 270 271 261 264 269 271 263 264 246 259 258 258 251 214 205 202 210 215 220 222 222 225 230 236
326 29 31 1 355 359 347 327 323 321 328 327 294 275 266 272 285 295 290 287 279 266 250 256 264 266 254 228 213 208 214 218 222 223 222 224 227 231
308 240 16 344 331 339 320 312 313 312 321 327 318 296 268 254 251 247 267 277 278 275 267 260 268 275 277 261 240 212 221 233 236 230 221 223 225 219
322 318 294 304 279 294 302 297 291 300 301 296 296 292 266 246 230 233 247 257 269 272 294 297 279 268 260 278 280 232 211 206 214 232 220 215 215 212
308 321 333 294 273 279 289 301 297 303 294 295 296 296 296 286 270 254 253 247 253 269 297 307 289 282 275 279 286 274 247 220 193 202 199 203 218 230
313 318 313 288 278 268 272 291 295 296 295 296 295 292 284 282 288 277 263 240 254 272 275 272 276 280 271 269 273 275 265 255 202 206 202 192 206 213
309 310 275 259 261 274 282 278 264 284 290 292 294 294 298 308 308 308 301 301 286 279 270 273 280 276 275 276 279 288 289 261 260 226 226 231 203 196
325 300 296 297 285 282 276 253 247 255 270 284 289 301 315 320 314 310 302 293 290 296 303 285 254 236 276 308 300 315 322 311 296 268 242 267 252 186
311 297 304 300 293 291 282 278 269 273 275 285 293 295 298 301 307 312 305 297 300 306 311 317 320 304 302 336 328 293 288 290 299 282 228 232 243 207
250 270 281 284 281 283 289 292 282 273 282 286 289 290 291 293 297 297 294 289 294 298 303 307 310 296 286 285 301 327 300 281 275 271 249 241 239 225
251 264 270 273 273 280 289 293 296 295 287 294 298 295 294 299 301 294 290 288 287 289 295 301 286 264 266 272 280 296 314 302 276 252 268 289 289 174
270 273 281 290 294 293 289 288 288 281 285 281 282 286 283 284 287 288 292 300 296 292 291 288 280 271 258 273 272 270 335 351 341 292 263 255 263 261
272 274 276 280 285 290 288 279 280 277 274 281 286 280 280 282 280 280 282 284 283 282 289 286 274 276 266 259 271 273 291 315 347 357 335 279 229 224
275 281 277 272 269 271 281 286 286 286 277 269 282 290 292 287 283 283 282 281 287 292 294 289 276 270 268 258 259 256 250 244 254 261 318 302 216 209